GFSFLT1_700_temp_000.txt.gz
Temp
17 17 16 16 15 14 14 14 13 13 13 13 13 12 12 11 11 11 10 10 10 10 10 10 10 10 10 10 9 9 8 7 7
18 17 17 16 15 14 14 13 13 13 13 13 13 13 12 11 11 11 10 10 10 10 9 9 9 9 10 10 9 9 8 7 7
18 18 18 17 16 15 15 14 13 13 13 13 12 13 12 12 11 11 10 10 10 9 9 9 9 9 9 10 9 9 8 7 6
19 18 18 18 17 16 15 15 14 14 13 13 12 12 12 12 11 11 10 10 10 9 9 9 9 9 9 9 9 8 8 7 6
19 19 18 17 17 16 15 15 15 14 14 13 13 12 12 12 11 10 10 10 10 9 8 8 8 8 9 9 9 8 7 6 5
19 18 18 17 17 16 16 15 15 15 14 14 14 13 12 11 11 11 11 10 9 9 7 8 8 8 9 9 8 7 6 6 5
19 18 18 17 17 17 16 16 16 15 15 14 14 13 12 11 11 11 9 9 8 8 7 8 8 8 8 8 7 6 6 5 5
18 18 18 17 17 17 16 16 16 15 15 14 14 13 13 12 12 10 9 8 6 8 7 7 7 8 7 7 6 5 5 5 4
18 18 18 17 17 17 16 16 15 15 14 14 13 13 13 13 11 10 8 6 4 6 6 6 7 7 6 5 5 5 4 4 3
18 18 18 17 16 16 15 15 15 14 14 13 13 13 13 12 12 10 8 7 7 6 6 6 7 6 5 5 5 5 3 3 3
18 18 17 17 16 15 14 14 14 14 14 14 14 13 13 12 12 10 8 9 8 7 5 6 6 5 4 4 5 4 3 3 3
17 17 16 16 15 14 14 14 14 14 14 14 14 13 12 12 11 10 9 7 8 8 5 6 5 5 4 4 4 3 3 3 3
17 16 15 15 14 14 13 13 13 12 12 12 13 13 12 11 10 9 8 7 7 6 6 5 5 4 4 4 2 3 3 3 3
15 15 14 13 13 13 12 12 12 12 11 11 11 12 12 12 10 9 7 7 6 7 6 5 4 4 4 3 2 3 2 3 2
13 13 12 12 12 11 11 11 11 11 12 12 11 11 10 10 9 8 8 7 6 6 5 4 4 3 3 4 3 3 2 2 2
12 12 12 12 11 11 11 11 10 11 11 11 10 9 9 9 8 8 7 7 6 6 5 4 4 3 4 3 3 2 2 2 2
11 12 12 12 12 11 11 11 10 10 10 11 10 9 8 8 7 8 7 6 5 5 4 4 3 4 3 3 2 1 1 1 1
11 12 12 12 11 11 11 10 10 10 10 9 8 7 7 7 6 7 6 6 6 4 4 4 3 2 3 3 2 1 1 1 1
10 10 10 10 10 9 9 10 10 9 8 8 7 6 7 7 6 6 6 6 6 4 4 3 3 2 2 2 1 1 1 1 1
10 9 9 9 9 9 9 8 7 7 7 7 6 6 6 6 5 5 5 5 5 4 3 3 2 2 2 1 1 1 1 1 1

GFSFLT1_700_temp_006.txt.gz
Temp
16 17 17 16 16 16 16 15 15 14 14 14 14 13 13 12 12 11 11 11 11 11 11 11 10 10 10 10 10 10 10 10 9
18 18 18 17 16 16 16 15 15 15 14 14 14 13 13 13 12 12 11 11 11 11 11 10 10 10 9 9 9 9 9 10 10
19 19 18 18 17 16 16 15 15 15 14 14 14 13 13 13 12 12 11 11 11 11 11 10 10 9 9 9 9 9 9 9 9
19 19 19 18 18 17 16 15 15 15 14 14 13 13 13 13 13 12 12 11 11 10 10 9 9 8 9 9 8 8 8 8 8
19 19 19 19 18 18 17 16 15 15 14 14 13 13 13 13 13 12 12 11 11 10 9 9 9 8 8 7 7 7 7 7 7
19 19 19 19 18 18 17 16 15 15 14 14 14 13 13 13 12 12 12 11 11 10 9 8 9 10 6 7 6 6 7 7 7
19 19 19 19 19 18 17 17 16 15 15 14 14 13 13 13 13 12 12 11 11 10 9 9 9 9 8 5 6 6 6 6 6
18 19 19 19 18 18 18 17 16 16 15 15 14 14 14 14 13 13 12 11 11 10 10 10 9 8 8 7 6 6 6 5 5
18 18 18 19 18 18 17 17 17 16 16 15 15 15 14 14 14 13 13 12 11 11 11 11 10 9 8 7 6 6 6 5 5
18 18 18 18 18 18 17 17 17 16 16 15 15 15 15 14 14 14 13 13 13 12 11 10 10 9 8 7 6 6 5 5 4
18 18 18 18 18 18 18 17 16 16 16 16 16 15 15 15 14 14 14 13 13 13 12 11 10 9 9 7 7 6 5 5 4
18 18 18 18 18 18 18 17 16 16 16 16 16 15 15 14 14 13 12 12 12 12 12 11 10 10 9 8 7 6 5 5 4
18 18 18 18 18 18 18 17 16 16 16 15 15 15 15 14 12 12 12 12 12 11 11 10 9 9 8 8 6 5 5 5 4
18 18 18 18 18 17 17 17 16 16 15 15 14 14 13 13 12 13 13 12 12 10 9 9 8 8 7 7 5 4 4 4 4
17 18 17 17 18 17 16 16 15 15 14 13 13 12 12 12 13 12 12 11 11 10 9 8 8 7 7 6 5 4 4 4 3
16 17 16 15 15 15 15 15 14 13 13 12 12 12 12 12 11 11 11 10 9 9 8 7 7 7 6 5 5 4 4 4 3
14 13 13 13 13 13 14 14 13 13 12 12 12 12 12 11 10 10 9 9 8 8 7 7 6 6 5 4 4 3 4 3 3
11 11 11 11 11 11 12 12 12 12 12 12 12 11 11 10 9 9 8 8 7 6 7 6 5 4 4 4 4 3 3 2 2
10 11 11 11 11 11 12 12 12 12 12 12 11 10 10 9 8 7 7 7 7 6 6 6 6 4 3 3 3 3 2 2 3
11 11 11 11 11 11 11 11 11 11 10 10 10 9 8 7 7 7 7 7 6 6 6 5 5 4 4 3 3 3 2 2 2

GFSFLT1_700_temp_009.txt.gz
Temp
19 18 16 15 16 17 17 17 16 15 15 15 14 14 14 13 12 12 12 11 11 11 11 11 11 10 10 10 10 9 9 9 9
19 19 17 16 17 18 17 16 17 16 15 14 14 14 14 13 13 12 12 12 11 11 11 11 11 10 10 10 10 9 9 9 9
19 19 18 16 15 17 17 17 16 16 15 15 15 14 14 13 13 13 12 12 12 12 11 11 11 10 10 10 10 10 9 8 8
20 19 18 17 16 17 18 18 16 16 15 15 15 14 14 13 13 13 12 12 12 12 11 11 11 11 10 10 10 8 7 8 7
19 19 18 17 17 15 17 18 17 16 15 15 15 14 14 14 13 13 13 13 12 12 11 11 11 11 10 10 10 9 8 7 7
19 19 19 18 17 16 15 17 18 17 16 15 14 14 14 14 14 13 13 13 12 12 12 11 11 11 11 10 10 9 9 8 6
19 19 19 18 17 16 16 16 18 17 16 15 15 14 14 14 13 13 13 13 13 12 12 12 11 11 11 10 9 9 8 8 6
18 19 18 18 19 19 18 17 18 18 16 15 15 15 14 14 14 14 13 13 13 13 12 11 11 11 10 10 9 8 8 7 6
18 18 18 18 18 18 19 18 18 18 16 15 15 15 15 14 14 14 14 14 13 13 12 11 11 11 11 11 10 8 7 6 6
18 18 18 18 18 18 18 18 18 17 17 16 16 15 15 15 15 14 14 14 14 14 13 13 12 11 11 11 10 9 8 6 5
18 18 18 18 18 18 18 18 18 17 17 16 16 16 15 15 15 15 14 14 14 13 13 13 12 12 11 11 10 9 8 6 5
18 18 18 17 18 18 18 18 17 17 16 16 16 16 16 15 15 14 14 14 13 12 12 12 12 12 11 10 9 8 8 7 5
17 17 17 17 18 18 18 18 18 17 16 16 16 15 15 15 14 14 14 13 12 12 12 12 12 11 10 9 8 8 8 6 5
17 17 17 17 17 18 18 17 17 17 16 16 16 15 15 15 14 13 13 13 13 12 12 11 11 10 9 8 8 7 7 6 5
16 17 17 18 18 18 18 17 17 16 16 16 16 15 15 14 13 12 13 12 12 12 11 10 10 9 8 8 7 7 6 5 4
15 16 17 17 17 18 17 16 15 15 15 15 14 14 14 13 12 12 12 12 12 11 10 9 9 8 8 8 7 7 6 5 4
14 12 14 15 14 16 15 14 14 13 13 13 13 13 12 12 12 12 12 11 10 10 9 8 8 8 8 7 7 6 5 4 3
9 9 11 12 12 13 13 13 12 12 12 12 12 12 12 12 12 12 11 10 9 8 8 7 7 7 7 6 6 5 4 4 3
8 8 11 11 11 11 11 11 11 12 12 12 12 12 11 11 11 10 9 8 8 8 8 7 7 7 6 6 4 4 3 3 3
10 10 11 11 11 11 11 11 12 12 12 11 11 11 11 10 10 10 8 8 7 7 7 7 6 6 5 5 4 4 3 3 2

GFSFLT1_700_temp_015.txt.gz
Temp
17 17 16 17 18 18 18 17 16 17 17 16 15 14 14 14 14 14 14 13 13 13 12 12 12 11 11 11 11 11 10 9 10
18 18 16 16 17 18 18 18 17 17 17 17 15 15 15 15 15 14 14 13 13 13 12 12 12 11 11 11 11 11 10 10 10
18 19 17 16 17 18 18 18 18 17 17 17 16 15 15 15 15 14 14 13 13 13 12 12 12 12 11 11 11 11 10 10 10
19 19 18 17 17 18 19 19 18 18 17 17 16 16 16 15 15 14 14 13 13 13 13 13 13 12 12 11 11 10 10 10 10
20 19 19 18 17 18 18 19 18 18 18 17 17 16 16 15 15 14 14 14 13 13 13 13 13 12 12 12 11 11 10 10 10
19 20 19 19 19 18 18 19 19 18 18 17 17 16 16 15 15 14 14 14 14 13 13 13 13 13 12 12 12 11 11 10 9
18 19 19 19 19 18 18 19 19 18 18 18 17 16 16 15 15 15 14 14 14 14 14 13 13 13 12 12 12 11 11 10 10
19 19 19 19 19 19 19 18 18 19 18 17 17 17 16 16 15 15 14 14 14 14 14 14 13 13 13 12 12 11 11 10 10
19 19 19 19 19 19 18 18 18 19 18 17 16 17 17 16 15 15 15 14 14 14 13 13 13 13 12 12 11 11 10 10 11
19 18 19 18 18 18 18 18 18 18 18 18 17 17 17 16 15 15 15 15 14 14 14 13 13 12 12 12 12 11 10 10 10
18 18 18 18 18 18 18 18 18 18 18 18 18 17 17 17 16 15 15 15 14 14 13 13 13 12 12 12 11 11 11 10 10
18 17 17 17 17 18 18 18 18 17 18 18 18 18 17 17 16 16 16 15 14 13 14 13 13 12 12 12 11 11 10 10 9
17 18 17 17 17 18 18 18 18 18 18 18 18 18 17 17 16 16 16 15 13 14 13 12 12 12 12 11 11 11 10 10 9
17 17 17 17 18 17 17 18 18 18 18 17 18 18 17 15 15 16 16 15 14 13 12 12 12 11 12 12 11 11 10 9 9
17 17 17 17 17 18 18 17 17 17 18 17 17 15 14 15 15 16 16 15 13 12 12 12 12 12 12 12 11 10 9 9 8
16 16 16 16 17 17 18 17 16 17 17 17 16 14 14 15 15 15 15 13 12 12 12 12 12 13 12 11 10 9 8 8 7
15 15 16 16 15 16 17 17 16 16 16 17 16 14 14 14 15 14 12 12 12 12 12 12 12 12 11 10 9 8 7 7 6
13 14 15 15 16 15 15 15 16 16 16 17 16 14 13 13 12 12 12 12 12 12 12 12 11 10 9 8 7 7 7 6 6
12 12 11 14 15 15 15 15 15 15 14 13 12 12 12 12 12 12 12 12 12 12 12 11 10 9 8 7 7 6 6 6 6
11 11 11 13 14 14 15 12 12 11 11 11 11 11 11 11 12 12 12 12 12 11 10 9 8 7 7 7 6 6 5 5 4

GFSFLT1_700_temp_021.txt.gz
Temp
18 18 18 18 17 17 17 16 16 15 14 13 13 13 14 13 13 13 12 12 12 12 13 12 12 12 11 11 11 10 10 10 10
18 18 18 18 17 17 17 17 17 16 15 14 14 13 13 14 13 13 13 13 13 13 13 13 12 12 12 11 11 11 10 10 10
18 18 18 18 18 17 17 17 17 17 16 15 15 14 13 13 13 13 13 13 13 13 13 13 12 12 12 12 11 11 11 10 10
18 19 19 19 18 18 18 17 17 17 16 16 15 14 13 13 14 14 13 13 13 13 13 13 12 12 12 12 12 11 11 10 10
19 19 19 18 19 19 18 18 18 18 17 16 16 15 14 13 14 14 14 14 14 13 13 13 13 12 12 12 12 11 11 10 10
19 19 19 19 18 18 19 18 18 18 18 17 16 15 15 14 14 15 15 14 14 14 13 13 13 13 12 12 12 12 11 11 10
19 19 19 19 18 18 18 18 18 18 18 17 16 16 15 15 14 15 15 15 14 14 14 13 13 13 13 12 12 12 12 11 11
18 19 19 18 18 17 18 18 18 18 18 18 17 16 15 16 15 15 15 15 14 14 14 14 13 13 13 13 13 12 12 11 11
18 18 19 19 18 18 18 18 18 18 18 18 17 17 16 16 15 15 15 15 15 14 14 14 14 14 13 13 13 13 12 12 12
18 18 18 18 18 18 17 18 18 18 18 18 17 17 16 16 16 15 16 15 15 15 15 15 14 14 14 13 13 13 13 12 11
18 18 18 18 18 18 18 18 18 18 18 18 18 17 17 17 16 16 16 15 15 15 15 15 15 14 14 13 13 13 12 11 11
17 18 18 18 17 17 18 18 18 19 19 18 18 17 17 17 16 16 16 16 15 15 15 15 15 14 14 13 13 12 11 11 11
17 17 18 18 18 18 18 18 18 18 18 19 18 18 17 17 17 16 16 16 16 15 15 15 14 14 13 13 12 12 11 12 11
18 17 17 17 18 18 18 18 18 18 18 18 18 18 18 18 18 17 16 15 15 15 15 14 14 14 13 13 12 11 12 12 11
18 17 17 17 17 17 18 18 18 18 18 18 18 18 18 17 17 17 16 15 15 14 15 15 14 13 12 12 11 12 12 12 11
17 17 17 17 17 17 17 17 17 17 18 18 18 18 17 17 17 17 17 16 15 14 13 14 13 13 12 12 11 12 12 12 10
15 15 15 16 16 16 17 17 17 17 17 17 17 17 17 17 17 17 16 15 15 15 13 12 12 11 12 11 11 11 11 11 10
14 14 14 15 15 15 15 16 16 16 17 17 17 16 16 17 17 17 16 16 15 14 12 11 10 10 10 10 11 12 11 10 10
13 13 13 14 14 14 14 14 14 15 15 16 16 16 17 16 17 17 16 16 15 12 10 10 9 9 8 8 9 11 10 10 9
12 12 13 13 13 13 13 13 13 13 13 14 14 15 16 16 16 16 15 13 13 12 10 9 7 9 7 7 9 10 10 9 7

GFSFLT1_700_temp_024.txt.gz
Temp
17 17 17 17 17 17 16 16 15 14 14 14 14 13 13 13 12 12 12 12 12 11 11 11 12 11 11 11 11 10 10 10 10
18 18 17 17 17 17 17 16 16 15 15 14 14 14 13 13 13 12 12 12 12 12 12 12 12 12 11 11 11 11 10 10 10
18 18 18 18 18 17 17 17 17 16 16 15 15 14 13 12 12 12 12 12 12 12 12 12 12 12 12 11 11 11 10 10 10
18 18 18 18 18 18 18 17 17 17 16 16 15 15 14 13 12 12 12 12 12 13 12 13 13 12 12 11 11 11 11 10 10
18 18 18 18 19 18 17 18 17 17 17 17 16 16 15 14 13 12 12 13 12 13 13 13 13 12 12 12 12 12 11 11 10
18 18 19 19 19 19 19 18 17 17 17 17 17 16 15 15 14 13 13 13 13 13 13 13 13 13 12 12 12 12 12 11 11
18 18 18 19 19 19 19 19 18 18 18 17 17 17 16 15 15 15 14 14 13 14 13 13 13 13 12 12 12 12 12 11 11
17 18 18 18 19 19 19 19 18 18 18 18 17 17 16 16 16 15 14 14 14 14 14 13 13 13 13 12 12 12 12 12 12
17 18 18 18 19 19 19 19 19 18 18 18 18 18 17 16 16 15 15 15 15 14 14 14 13 13 13 13 13 13 12 12 12
17 17 17 18 18 18 18 19 18 18 18 18 18 18 18 17 16 16 15 15 15 15 15 14 14 14 13 13 13 13 13 12 12
17 17 17 18 18 18 18 19 18 18 18 18 17 17 18 18 17 16 16 15 15 15 15 15 14 14 14 14 14 13 13 12 13
17 17 17 18 18 18 18 18 18 18 18 18 18 18 18 18 17 17 16 16 15 16 15 15 15 14 14 14 14 13 13 13 13
17 17 17 17 17 17 18 18 18 18 18 18 18 18 18 18 18 17 17 16 15 15 15 15 15 14 14 14 14 14 13 13 13
17 17 17 17 17 17 18 18 18 18 18 18 18 18 18 18 18 18 17 16 16 15 14 15 15 15 14 14 14 13 13 13 13
17 17 17 17 17 17 17 17 17 17 18 18 18 18 18 18 18 18 17 17 16 15 15 14 15 15 14 14 14 14 13 12 12
17 17 17 17 17 17 17 17 17 17 17 17 17 17 17 17 17 17 16 17 17 16 15 15 14 14 14 13 14 14 13 12 12
17 17 16 16 17 17 17 17 17 17 17 17 17 17 18 17 17 16 17 17 15 16 15 16 15 12 13 14 13 12 11 11 11
15 15 16 16 16 16 16 16 16 16 16 17 17 17 17 17 17 17 16 17 14 15 15 15 13 14 13 12 10 10 10 8 9
14 14 15 15 15 15 15 15 15 16 16 16 16 16 16 16 17 16 16 16 16 16 16 14 13 13 13 12 9 8 8 7 5
13 13 13 13 13 14 14 14 14 15 15 15 15 15 16 16 16 16 16 16 16 16 16 14 13 12 11 11 11 8 5 6 6

GFSFLT1_700_temp_030.txt.gz
Temp
16 15 17 17 16 15 15 14 14 14 14 14 13 13 13 13 13 12 12 12 12 12 12 11 11 11 11 11 11 10 10 10 10
17 16 18 17 17 16 15 15 14 14 14 14 14 13 13 13 13 13 13 12 12 12 12 11 11 12 12 11 11 10 10 10 10
17 16 17 18 17 17 17 16 15 15 14 14 14 14 14 13 13 13 13 13 12 12 12 12 12 12 12 11 11 11 11 11 11
17 17 18 18 18 18 17 17 16 16 15 15 14 14 14 14 14 14 13 13 13 13 12 12 12 12 12 12 11 11 11 11 11
17 17 18 18 18 18 17 17 17 17 17 16 15 15 14 14 14 14 14 13 13 13 13 12 12 12 12 12 12 12 11 11 11
16 16 16 18 18 18 18 18 18 18 17 17 16 15 15 14 14 14 14 14 13 12 13 13 13 13 13 13 12 12 12 12 12
15 16 17 17 17 18 18 18 18 18 18 17 17 16 16 15 15 15 15 14 13 13 13 13 13 13 13 13 13 12 12 12 12
16 16 17 17 17 18 18 18 18 18 18 18 17 17 17 16 16 16 15 15 14 13 13 13 13 13 13 13 13 13 13 12 12
15 16 16 16 17 17 17 18 18 18 19 18 18 17 17 17 16 16 16 15 15 14 14 14 14 14 14 14 14 14 14 13 13
16 16 16 16 16 17 17 17 18 18 19 17 18 17 18 17 17 17 16 16 16 15 15 15 15 15 15 15 15 14 14 14 13
15 16 17 16 16 16 17 17 18 18 18 19 19 18 18 18 18 17 17 16 17 16 16 15 15 15 15 15 15 14 14 14 13
15 16 17 17 17 16 17 17 17 18 18 19 19 19 19 18 17 17 17 17 17 17 16 15 15 15 15 15 15 15 14 14 13
14 15 16 16 17 17 17 17 18 18 18 19 19 19 19 18 18 17 17 17 17 17 16 16 15 15 15 15 15 14 14 14 13
16 16 16 16 17 17 17 17 17 18 18 18 18 18 18 18 18 18 17 17 17 17 16 16 16 15 15 15 15 15 15 14 14
15 16 16 16 17 17 17 17 17 17 18 18 18 18 18 18 18 18 18 18 18 17 17 17 17 16 16 16 15 15 15 15 14
15 15 16 16 16 17 17 17 17 17 17 17 18 18 18 18 18 18 18 18 18 17 17 17 17 17 17 16 16 15 15 15 14
15 15 16 16 16 17 17 17 17 17 17 17 17 18 18 18 18 18 18 18 18 18 18 18 17 17 16 17 16 15 16 15 14
14 15 15 15 16 16 17 17 17 17 17 17 17 17 17 17 17 17 17 17 17 17 17 17 17 16 15 16 16 15 15 15 15
14 15 15 15 15 16 16 17 17 17 17 17 17 17 17 17 17 17 17 17 17 17 17 17 16 16 16 16 15 15 15 14 14
13 13 13 13 14 15 16 16 17 17 17 17 17 17 17 17 17 16 16 16 17 17 16 16 16 16 15 14 15 15 15 14 13

GFSFLT1_700_temp_033.txt.gz
Temp
18 17 16 15 13 13 15 15 14 14 14 14 14 14 13 13 13 13 13 12 12 12 12 12 12 12 12 12 11 11 11 10 10
18 18 16 15 14 13 16 15 15 14 14 14 14 14 14 13 13 13 13 13 13 13 12 12 12 12 12 12 12 11 11 11 11
18 18 17 16 15 14 16 16 15 15 14 14 15 14 14 14 14 13 13 13 13 13 13 12 12 13 12 13 12 11 11 11 11
18 18 18 17 15 15 16 16 16 16 15 15 14 15 15 14 14 14 13 13 13 13 13 13 12 13 13 13 13 12 12 11 11
18 18 18 17 16 15 14 15 16 16 16 16 16 15 15 15 14 14 14 14 13 13 13 13 13 13 13 13 13 12 12 12 11
18 18 18 17 17 16 15 16 17 17 17 17 16 15 15 15 15 15 15 14 14 14 13 13 13 13 13 13 13 13 13 12 12
18 17 17 17 17 17 16 15 17 18 17 17 17 16 16 16 16 16 16 15 15 14 14 13 13 14 14 14 13 14 13 13 13
16 15 16 16 16 16 16 15 17 18 17 17 17 17 17 17 16 16 15 15 15 14 14 14 13 13 14 14 14 14 14 14 13
15 15 15 15 15 15 17 18 18 18 18 18 17 17 17 17 16 16 16 16 15 15 15 15 14 14 14 14 14 14 14 14 14
14 14 15 15 15 15 17 18 18 18 18 17 18 18 18 17 17 17 17 16 16 16 16 15 15 14 14 14 14 15 14 14 14
14 16 16 15 16 16 16 16 16 17 18 18 18 18 18 18 17 17 17 17 17 16 16 16 15 15 14 14 15 15 15 14 14
14 14 15 15 16 16 16 16 15 15 17 18 18 18 19 18 18 18 17 17 17 17 17 16 16 16 15 16 16 15 15 15 15
14 14 14 15 15 15 15 16 16 17 17 18 18 18 19 18 19 18 18 17 17 17 17 17 16 16 16 16 16 16 16 15 15
14 14 15 14 14 15 16 16 17 17 17 17 18 18 18 19 19 19 18 18 17 17 17 16 16 16 16 16 16 16 16 16 15
14 14 15 15 15 16 16 16 17 17 17 17 18 18 18 18 19 19 18 18 17 17 17 17 17 17 16 16 17 17 17 17 16
14 13 14 15 15 16 16 16 17 17 17 17 17 17 18 18 18 18 18 18 17 17 17 17 17 17 17 17 17 17 17 17 17
13 14 14 15 15 16 16 16 17 17 17 17 17 17 17 18 18 18 18 18 18 18 18 18 18 18 18 17 17 17 17 17 17
13 13 14 15 15 15 16 16 17 17 17 17 17 17 17 17 17 17 18 17 17 17 17 17 17 17 17 17 16 17 16 16 16
12 14 14 14 15 15 16 16 16 17 17 17 17 17 17 17 17 17 17 17 17 17 17 17 17 16 16 16 16 16 15 15 15
12 12 13 13 14 15 15 16 16 16 16 17 17 17 17 17 17 16 16 17 17 16 16 16 16 16 15 15 15 15 14 14 14

GFSFLT1_700_temp_036.txt.gz
Temp
18 17 16 16 15 14 14 14 15 15 15 14 14 14 14 13 13 13 13 13 13 13 13 13 13 12 13 12 12 11 10 11 11
19 18 17 16 15 14 16 15 15 15 15 15 15 14 14 13 14 13 13 13 13 13 13 13 13 13 13 12 12 12 11 11 11
19 19 18 17 16 15 16 16 15 15 15 15 15 15 14 14 14 14 13 13 13 13 13 13 13 13 13 13 13 13 12 11 11
19 19 18 17 16 16 17 17 16 15 14 14 15 15 15 14 14 14 13 14 13 13 13 13 12 13 13 13 13 13 13 12 11
19 19 18 18 17 16 15 17 17 16 15 15 15 15 15 15 14 14 14 14 14 13 13 13 13 13 13 13 13 13 13 13 12
19 19 19 18 17 17 15 16 17 17 16 16 16 15 15 15 15 15 15 14 14 14 13 14 13 13 13 14 13 14 14 13 13
18 19 19 18 18 17 16 15 16 17 17 16 16 16 16 16 16 15 15 15 15 14 14 14 14 14 14 14 14 13 13 13 13
18 18 18 18 18 17 17 16 16 16 16 17 17 16 17 17 16 16 15 15 16 15 15 16 15 15 14 14 14 14 14 14 14
17 17 17 17 17 16 16 16 16 17 17 17 17 17 17 17 17 16 16 16 16 16 16 16 15 15 15 15 15 15 14 14 14
15 15 16 16 16 16 16 16 15 16 17 17 17 18 18 18 17 17 17 17 17 16 16 16 16 16 15 16 16 15 15 14 15
15 15 15 15 15 15 16 17 17 16 16 17 18 18 18 18 19 18 17 17 17 17 17 16 16 16 16 16 16 16 15 15 14
14 14 14 14 15 15 16 16 16 16 17 17 18 18 18 18 18 18 18 18 17 17 17 17 17 16 16 16 17 16 16 15 15
13 13 13 14 14 15 16 16 16 16 16 16 17 18 18 18 18 18 18 18 18 17 17 17 16 16 16 17 16 16 16 16 15
14 14 14 14 14 15 15 15 16 15 15 16 18 18 18 18 18 18 19 18 18 18 17 17 17 17 16 16 17 17 16 16 16
13 14 14 14 14 14 15 15 15 15 16 16 17 17 18 18 18 18 18 18 18 18 17 17 17 17 17 17 17 17 17 17 16
13 13 13 13 14 14 14 14 15 15 16 17 17 17 17 17 18 18 18 18 18 18 18 17 17 17 17 17 17 17 17 17 16
12 12 12 12 13 14 14 14 16 16 16 17 17 17 17 17 17 17 18 18 18 17 17 17 17 17 17 17 17 17 16 16 16
10 11 12 13 14 14 14 15 16 16 16 17 17 17 17 17 17 17 17 17 17 17 17 17 17 16 16 16 16 17 16 16 16
10 11 12 12 13 13 14 15 15 16 16 16 17 17 17 17 17 17 17 17 17 17 17 17 17 16 16 16 16 16 16 15 15
10 10 11 12 12 13 14 15 15 16 16 16 16 17 17 17 16 15 16 15 16 16 16 16 16 16 15 15 15 15 15 15 15

GFSFLT1_700_temp_042.txt.gz
Temp
18 17 17 17 17 16 15 15 14 14 14 14 13 13 13 13 13 12 12 12 13 13 12 12 11 12 11 11 12 11 10 11 11
17 18 17 17 17 16 16 15 15 14 14 14 14 14 13 13 13 13 13 13 13 13 13 12 12 12 12 12 12 11 11 11 11
18 17 17 18 17 16 16 16 16 15 14 14 14 14 14 14 14 13 13 13 13 13 13 12 12 12 12 12 12 12 11 11 11
18 17 17 18 18 17 17 17 16 15 15 14 14 14 14 14 14 14 13 13 13 13 13 13 13 13 12 12 12 11 11 11 11
19 18 18 18 18 18 17 17 16 16 15 14 14 14 15 15 15 14 14 14 13 13 13 13 13 13 13 12 12 12 12 12 12
19 18 19 18 18 18 17 17 16 16 15 14 14 15 15 15 15 15 14 14 14 13 13 13 13 13 13 13 13 13 12 12 12
19 19 19 19 18 18 17 17 17 16 16 15 14 15 15 15 15 15 15 14 14 14 13 13 13 13 13 14 13 13 12 12 12
19 19 19 19 18 18 17 17 17 17 16 16 15 15 16 16 16 15 15 14 14 14 14 14 14 14 14 14 14 14 13 13 12
19 19 19 19 18 18 17 17 17 17 17 17 16 16 17 16 16 16 16 15 15 15 15 15 15 15 15 15 15 15 14 14 13
19 19 19 19 18 18 18 17 17 18 17 17 17 17 16 16 16 16 16 16 15 15 16 15 16 16 16 16 16 16 15 15 14
18 18 18 18 18 18 17 17 17 17 17 16 17 17 17 16 16 16 16 16 16 16 16 16 16 16 16 16 16 16 15 15 14
16 15 16 17 17 16 17 17 16 16 16 16 16 16 17 17 17 17 16 17 17 16 16 16 17 16 16 16 16 16 15 14 14
15 15 15 15 14 15 15 16 16 16 16 16 17 17 17 17 17 17 17 17 17 16 16 16 16 17 17 17 16 16 15 15 14
15 15 15 15 15 14 14 14 15 15 15 16 16 16 16 16 16 17 17 17 17 17 17 17 17 17 17 17 17 16 16 16 15
14 15 15 15 15 15 15 15 15 15 15 16 16 16 16 16 16 17 17 17 17 17 17 17 17 17 17 17 17 17 17 16 16
14 14 15 15 15 15 15 15 15 15 15 15 15 15 15 15 15 16 16 16 17 17 17 17 17 17 18 18 17 17 17 17 17
13 14 14 14 15 15 15 15 15 15 15 15 15 15 15 15 15 15 15 16 16 16 16 17 17 17 17 17 17 17 17 17 17
11 12 13 13 14 14 14 14 14 15 15 15 14 14 14 14 15 15 15 15 16 16 16 16 16 17 17 17 17 17 17 17 17
10 11 11 12 12 12 13 14 14 14 14 15 15 14 14 14 14 14 15 15 15 16 16 16 16 16 16 17 17 17 16 16 16
9 10 10 10 11 12 12 12 13 14 14 14 15 15 15 14 15 15 15 15 16 16 16 16 16 16 16 16 16 16 16 16 15

GFSFLT1_700_temp_045.txt.gz
Temp
17 17 16 16 16 15 14 15 14 14 13 13 12 12 12 12 11 11 11 11 11 11 11 11 11 11 11 10 10 11 10 10 10
16 16 16 16 16 16 16 15 15 14 14 14 13 13 12 12 12 12 12 12 11 12 12 11 12 12 11 11 11 11 11 11 11
16 16 16 16 16 16 16 16 15 14 14 13 14 13 13 13 12 12 12 12 12 12 12 12 12 12 12 12 11 11 11 11 11
17 17 18 16 17 16 16 16 16 15 14 13 13 13 13 13 13 13 13 12 12 12 12 12 12 12 12 12 12 12 11 11 11
18 18 18 17 17 17 16 16 16 15 15 14 13 13 13 14 13 13 13 13 12 12 12 12 12 12 12 12 12 12 12 12 12
18 18 18 18 17 17 17 16 16 16 14 14 13 13 13 14 14 14 13 13 13 13 13 12 12 12 12 12 12 12 12 12 12
18 18 19 18 18 18 18 17 17 16 15 14 13 13 13 14 14 14 14 14 13 13 13 13 13 13 13 12 12 12 12 12 12
19 19 19 19 19 19 18 17 17 16 15 14 14 14 13 14 14 14 14 14 14 13 13 13 13 13 13 13 13 13 12 12 12
19 20 19 19 19 19 19 18 17 16 16 15 14 14 15 14 15 14 14 14 14 14 13 13 13 13 14 14 14 14 13 13 12
19 19 19 19 19 19 18 18 17 16 16 16 15 15 15 15 15 15 15 15 14 15 15 14 14 14 14 15 15 14 14 14 13
18 18 19 19 19 19 19 18 17 17 16 17 16 16 16 15 16 16 15 15 15 15 15 15 15 15 15 15 15 15 15 14 14
18 19 19 19 19 19 18 18 17 17 17 16 17 17 16 16 16 16 16 16 16 15 15 15 15 15 15 16 15 15 14 14 14
18 19 19 18 18 18 18 17 17 17 16 16 16 17 17 16 15 15 15 15 15 15 15 15 15 15 16 16 16 15 15 15 14
15 17 18 18 18 17 17 17 17 17 16 16 16 16 17 15 15 15 15 15 14 15 15 15 16 16 16 16 16 15 15 15 15
13 14 15 15 16 16 16 17 16 16 16 16 16 16 16 16 16 16 16 16 16 16 16 16 16 16 16 16 16 16 16 16 16
13 14 14 14 14 14 15 15 15 15 16 16 16 16 16 16 16 16 16 16 17 16 16 16 16 16 17 17 17 17 17 16 16
12 14 14 14 14 14 14 14 14 15 15 15 15 16 16 16 16 16 16 16 16 16 17 16 16 16 16 16 17 17 17 17 17
10 12 13 14 14 14 14 15 15 15 15 15 15 15 15 15 15 16 16 16 15 15 15 15 15 15 16 16 16 16 16 17 17
9 9 11 12 14 14 14 14 14 14 14 14 14 14 14 14 15 15 15 15 15 15 15 15 15 15 16 16 16 16 16 16 16
7 9 10 10 11 13 13 13 13 14 14 14 15 15 15 14 14 14 14 14 14 14 14 14 15 15 15 16 16 16 16 16 15

GFSFLT1_700_temp_048.txt.gz
Temp
16 15 15 14 14 15 14 14 13 13 13 12 12 12 12 12 12 11 11 11 11 11 10 10 10 11 11 10 10 11 10 10 10
16 16 15 15 15 15 14 14 14 13 13 13 13 13 12 12 12 12 11 11 11 11 11 10 10 11 10 10 10 11 11 11 11
16 16 16 16 16 15 15 15 14 13 13 13 13 13 13 12 12 12 12 11 11 11 11 10 10 11 11 11 11 11 11 11 11
16 17 17 17 17 16 16 15 14 14 13 13 13 13 13 13 12 12 12 12 11 11 11 11 11 11 11 11 11 11 12 11 11
17 17 17 17 17 17 16 16 15 15 14 13 13 13 13 13 12 12 12 12 12 11 11 11 11 11 11 11 12 12 12 12 11
17 17 17 17 17 17 17 16 16 15 14 14 13 13 13 13 12 12 13 12 12 12 12 11 11 11 12 12 12 12 12 11 12
16 16 17 17 17 18 17 17 16 15 15 14 13 13 13 13 13 13 13 13 12 12 12 12 12 12 12 12 12 12 12 12 12
16 17 17 17 18 18 18 17 17 16 15 14 14 13 12 13 13 13 13 13 13 13 12 13 12 12 12 12 12 12 12 12 12
16 17 17 17 18 18 18 18 18 17 16 15 14 13 12 12 13 13 13 13 13 13 13 13 13 13 13 13 13 12 12 12 12
17 17 18 18 18 18 18 19 18 17 17 15 14 14 13 13 14 14 14 14 14 14 14 13 13 13 13 13 13 13 13 12 12
17 17 18 19 19 19 19 19 18 18 17 16 15 15 14 14 15 15 14 14 14 14 14 14 13 13 13 14 14 13 13 13 13
17 18 19 19 18 19 19 18 18 18 17 16 15 15 15 15 15 15 14 15 15 14 14 14 14 14 14 14 14 14 14 14 14
17 18 19 18 18 19 18 18 18 17 16 16 16 15 16 15 15 14 14 14 14 14 14 14 14 14 14 15 15 14 14 14 14
16 18 18 18 18 18 18 18 17 17 16 17 16 15 15 15 15 15 14 14 14 14 14 14 14 15 15 15 15 15 15 15 15
15 17 17 17 17 18 18 18 17 17 17 16 16 15 15 15 14 15 15 15 14 14 14 14 15 15 15 15 15 15 15 15 15
12 14 16 16 17 17 17 17 17 17 17 16 15 15 16 16 15 15 16 15 15 16 16 16 16 16 15 15 15 15 15 15 15
11 12 13 14 15 15 15 16 17 16 16 16 16 16 15 16 16 16 16 16 16 16 16 16 16 16 15 15 15 15 15 16 16
11 11 12 12 13 13 14 14 15 15 15 15 15 15 15 15 15 16 15 16 16 16 16 16 15 15 15 15 15 15 15 16 16
9 10 11 11 12 13 13 14 14 14 14 15 15 15 15 15 15 15 15 15 15 15 15 15 15 15 15 15 15 15 15 15 15
6 8 9 10 11 12 12 13 14 14 14 14 14 14 14 14 15 15 15 15 15 15 15 15 15 15 15 15 14 15 15 15 15